Regional Weather Roundup
Issued by NWS

Home | Current Version | Previous Version | Graphics & Text | Print | Product List | Glossary On
Versions: 1 2 3 4 5 6 7 8 9 10 11 12 13 14 15 16 17 18 19 20 21 22 23 24 25 26 27 28 29 30 31 32 33 34 35 36 37 38 39 40 41 42 43 44 45 46 47 48 49 50
000
ASUS45 KTFX 170610
RWRMT
MONTANA REGIONAL WEATHER ROUNDUP
NATIONAL WEATHER SERVICE GREAT FALLS MT
1200 AM MDT THU AUG 17 2017

NOTE: "FAIR" INDICATES FEW OR NO CLOUDS BELOW 12000 FEET WITH NO
SIGNIFICANT WEATHER AND/OR OBSTRUCTIONS TO VISIBILITY.

MTZ001>007-043-170700-
WEST OF THE DIVIDE

CITY           SKY/WX    TMP DP  RH WIND       PRES   REMARKS
KALISPELL      MOCLDY    66  40  38 S6        29.94S
MISSOULA       PTCLDY    66  37  34 CALM      30.00R
BUTTE          CLEAR     54  32  43 E5        30.10S
MULLAN PASS    CLEAR     57  34  41 SW7       30.14S
DEER LODGE       N/A     59  36  41 CALM      30.08R
EUREKA           N/A     72  37  28 MISG      29.93R
HAMILTON         N/A     57  41  54 CALM      30.03R
LIBBY            N/A     64  39  39 SE3       29.93S
PLAINS           N/A     60  40  47 MISG      29.98R
RONAN            N/A     56  46  69 CALM      30.03S
$$

MTZ008-052>055-170700-
SOUTHWEST MONTANA

CITY           SKY/WX    TMP DP  RH WIND       PRES   REMARKS
BOZEMAN        CLEAR     58  42  55 S5        30.02R
DILLON         CLOUDY    58  41  53 SW5       30.06R
W YELLOWSTONE  CLOUDY    50  37  62 CALM      30.17S
ENNIS          CLOUDY    63  43  48 E6        30.12R
THREE FORKS      N/A     55  39  54 CALM      30.01R
TWIN BRIDGES     N/A     62  34  35 SE1       30.04R
$$

MTZ009-010-012-014-046-048-049-054-170700-
EAST SLOPES AND CENTRAL MONTANA

CITY           SKY/WX    TMP DP  RH WIND       PRES   REMARKS
CUT BANK       CLOUDY    63  36  36 W10       29.93S
GREAT FALLS    CLEAR     58  27  30 W8        29.95R
MALMSTROM AFB  CLEAR     62  28  27 SW8       29.94R
HELENA         CLEAR     67  33  28 W8        29.98S
AUGUSTA          N/A     56  28  34 NW10      29.99S
BOWMANS CRNR     N/A     60  28  30 W8        29.97S
CHOTEAU          N/A     64  32  29 W6        29.97F
CONRAD           N/A     59  37  43 W5        29.96S
FAIRFIELD        N/A     59  34  38 CALM      29.95F
POWER            N/A     55  29  37 W8        29.95R
RAYNESFORD       N/A     58  28  32 E9        29.98R
ULM              N/A     54  28  37 CALM      29.95R
$$

MTZ011-013-016-021-045-047-050-051-170700-
NORTH CENTRAL MONTANA

CITY           SKY/WX    TMP DP  RH WIND       PRES   REMARKS
HAVRE          PTCLDY    57  33  40 S3        29.87R
LEWISTOWN      CLEAR     57  30  35 SE7       29.97S
N BAR RANCH    MOCLDY    59  28  31 W9        30.01S
CHINOOK          N/A     57  39  51 CALM      29.86R
DENTON           N/A     60  28  28 SW10      29.90S
GEYSER           N/A     56  27  31 W8        29.96S
GRASS RANGE      N/A     59  28  30 W5        29.92S
JUDITH GAP       N/A     62  27  26 NW7       30.00R
WINIFRED       MOCLDY    67  28  22 S6        29.93R
$$

MTZ017>020-022>027-061-062-170700-
NORTHEAST MONTANA

CITY           SKY/WX    TMP DP  RH WIND       PRES   REMARKS
GLASGOW        CLEAR     64  43  46 E10       29.81S
JORDAN           N/A     63  37  38 W7        29.84S
SIDNEY         CLEAR     67  52  58 S3        29.85S
WOLF POINT     CLEAR     67  49  52 NE8       29.81S
MALTA          CLEAR     57  39  51 NW3       29.84R
PLENTYWOOD       N/A     68  55  64 SE9       29.86F
POPLAR           N/A     70  50  49 NE3       29.82R
SCOBEY           N/A     66  48  52 CALM      29.84S
$$

MTZ028>42-056>058-170700-
SOUTHCENTRAL AND SOUTHEAST MONTANA

CITY           SKY/WX    TMP DP  RH WIND       PRES   REMARKS
BAKER          CLEAR     63  49  60 SE10      29.91F
BILLINGS       PTCLDY    71  34  25 N3        29.92S
LIVINGSTON     PTCLDY    61  38  42 NW7       30.01R
MILES CITY     CLEAR     69  41  36 S6        29.84F
BIG TIMBER     PTCLDY    68  36  30 CALM      30.02R
EKALAKA          N/A     70  39  32 SE13      29.92F
FORSYTH          N/A     72  34  25 W7        29.84S
HARLOWTON        N/A     62  27  26 MISG      30.00R
LAUREL           N/A     67  40  37 CALM      29.93S
$$

REGIONAL REPORTS...DAKOTAS

CITY           SKY/WX    TMP DP  RH WIND       PRES   REMARKS
WILLISTON      CLOUDY    72  57  59 S6        29.85F
MINOT          CLEAR     60  53  77 CALM      29.87S
DICKINSON      CLEAR     58  53  84 SE9       29.91S
BEACH            N/A     61  50  67 SE12      29.93S
CROSBY           N/A     66  52  59 S8        29.86S
TIOGA          MOCLDY    64  54  68 S5        29.91R
WATFORD CITY     N/A     64  55  72 SE8       29.87S
BISMARCK       CLEAR     58  56  93 CALM      29.91F
GRAND FORKS    CLOUDY    60  60 100 NW7       29.82F
FARGO          CLOUDY    65  64  97 N12       29.78F
BUFFALO SD       N/A     63  48  58 S12       29.89S
RAPID CITY     CLEAR     59  51  75 SE3       29.99F
$$

REGIONAL REPORTS...WYOMING/IDAHO/WASHINGTON

CITY           SKY/WX    TMP DP  RH WIND       PRES   REMARKS
GILLETTE       CLEAR     66  34  30 S15       30.00S
SHERIDAN       CLOUDY    62  46  55 S6        29.96S
BUFFALO WY     CLOUDY    64  35  34 SW5       30.04S
CODY           CLOUDY    68  42  38 SW13      30.06S
YELLOWSTONE LA   N/A     44  39  82 CALM      30.28R
IDAHO FALLS    CLEAR     64  41  42 S10       30.06R
SALMON         CLEAR     65  41  41 S3        30.03R
BOISE          CLEAR     69  38  32 CALM      29.98R
SPOKANE        PTCLDY    73  43  33 S8        29.94S
$$

REGIONAL REPORTS...ALBERTA

CITY           SKY/WX    TMP DP  RH WIND       PRES   REMARKS
EDMONTON       CLOUDY    59  52  77 W6        29.88R
CALGARY        MOCLDY    61  46  59 N8        29.94R SMOKE
LETHBRIDGE     PTCLDY    64  41  42 SW8       29.87S
MEDICINE HAT   PTCLDY    61  52  72 SW2       29.83S
$$

REGIONAL REPORTS...SASKATCHEWAN

CITY           SKY/WX    TMP DP  RH WIND       PRES   REMARKS
SWIFT CURRENT  CLEAR     59  43  55 E10       29.86S
REGINA         PTCLDY    68  43  40 NE12      29.87S
SASKATOON      CLOUDY    57  46  67 SE5       29.85F
$$



USA.gov is the U.S. government's official web portal to all federal, state and local government web resources and services.